,,PressureMeas_1m,,PRMeasQMR101_1,,RHStat155_1m_1,,SRMeasQMS101R_1m,,TAStat155_1m_1,,GenWind_1,,GenWind_1,
2019-09-28, 00:00:06,VALID,919.414,VALID,0.0,VALID,98.493,VALID,-0.019,VALID,21.487,VALID,161.0,VALID,0.0,
2019-09-28, 00:01:06,VALID,919.379,VALID,0.0,VALID,98.521,VALID,-0.018,VALID,21.468,VALID,161.0,VALID,0.0,
2019-09-28, 00:02:06,VALID,919.356,VALID,0.0,VALID,98.597,VALID,-0.007,VALID,21.469,VALID,170.0,VALID,0.0,
2019-09-28, 00:03:06,VALID,919.322,VALID,0.0,VALID,98.76,VALID,0.013,VALID,21.5,VALID,222.0,VALID,0.0,
2019-09-28, 00:04:06,VALID,919.289,VALID,0.0,VALID,98.652,VALID,-0.005,VALID,21.437,VALID,224.0,VALID,0.0,
2019-09-28, 00:05:06,VALID,919.29,VALID,0.0,VALID,98.67,VALID,-0.005,VALID,21.417,VALID,195.0,VALID,0.0,
2019-09-28, 00:06:06,VALID,919.293,VALID,0.0,VALID,98.795,VALID,-0.024,VALID,21.456,VALID,166.0,VALID,0.0,
2019-09-28, 00:07:06,VALID,919.32,VALID,0.0,VALID,98.878,VALID,-0.034,VALID,21.485,VALID,166.0,VALID,0.0,
2019-09-28, 00:08:06,VALID,919.315,VALID,0.0,VALID,98.842,VALID,-0.02,VALID,21.471,VALID,166.0,VALID,0.0,
2019-09-28, 00:09:06,VALID,919.31,VALID,0.0,VALID,98.746,VALID,-0.028,VALID,21.423,VALID,166.0,VALID,0.0,
2019-09-28, 00:10:06,VALID,919.303,VALID,0.0,VALID,98.652,VALID,-0.029,VALID,21.384,VALID,166.0,VALID,0.0,
2019-09-28, 00:11:06,VALID,919.277,VALID,0.0,VALID,98.748,VALID,-0.019,VALID,21.398,VALID,166.0,VALID,0.0,
2019-09-28, 00:12:06,VALID,919.248,VALID,0.0,VALID,98.821,VALID,-0.032,VALID,21.428,VALID,169.0,VALID,0.0,
2019-09-28, 00:13:06,VALID,919.214,VALID,0.0,VALID,98.804,VALID,-0.028,VALID,21.405,VALID,238.0,VALID,0.0,
2019-09-28, 00:14:06,VALID,919.188,VALID,0.0,VALID,98.791,VALID,-0.022,VALID,21.383,VALID,228.0,VALID,0.0,
2019-09-28, 00:15:06,VALID,919.184,VALID,0.0,VALID,98.765,VALID,-0.029,VALID,21.341,VALID,225.0,VALID,0.0,
2019-09-28, 00:16:06,VALID,919.182,VALID,0.0,VALID,98.81,VALID,-0.021,VALID,21.324,VALID,228.0,VALID,0.0,
2019-09-28, 00:17:06,VALID,919.199,VALID,0.0,VALID,98.94,VALID,-0.029,VALID,21.342,VALID,237.0,VALID,0.0,
2019-09-28, 00:18:06,VALID,919.186,VALID,0.0,VALID,98.944,VALID,-0.022,VALID,21.331,VALID,242.0,VALID,0.0,
2019-09-28, 00:19:06,VALID,919.199,VALID,0.2,VALID,98.947,VALID,-0.027,VALID,21.31,VALID,230.0,VALID,0.0,
2019-09-28, 00:20:06,VALID,919.196,VALID,0.0,VALID,99.108,VALID,-0.038,VALID,21.379,VALID,236.0,VALID,0.0,
2019-09-28, 00:21:06,VALID,919.19,VALID,0.0,VALID,99.197,VALID,-0.049,VALID,21.445,VALID,281.0,VALID,0.0,
2019-09-28, 00:22:06,VALID,919.191,VALID,0.0,VALID,99.181,VALID,-0.044,VALID,21.451,VALID,358.0,VALID,0.0,
2019-09-28, 00:23:06,VALID,919.189,VALID,0.0,VALID,99.14,VALID,-0.05,VALID,21.417,VALID,14.0,VALID,0.0,
2019-09-28, 00:24:06,VALID,919.216,VALID,0.0,VALID,99.102,VALID,-0.041,VALID,21.397,VALID,17.0,VALID,0.0,
2019-09-28, 00:25:06,VALID,919.204,VALID,0.0,VALID,99.119,VALID,-0.05,VALID,21.398,VALID,16.0,VALID,0.0,
2019-09-28, 00:26:06,VALID,919.219,VALID,0.0,VALID,99.084,VALID,-0.05,VALID,21.359,VALID,13.0,VALID,0.0,
2019-09-28, 00:27:06,VALID,919.195,VALID,0.0,VALID,99.005,VALID,-0.031,VALID,21.314,VALID,15.0,VALID,0.0,
2019-09-28, 00:28:06,VALID,919.203,VALID,0.0,VALID,99.033,VALID,-0.037,VALID,21.33,VALID,16.0,VALID,0.0,
2019-09-28, 00:29:06,VALID,919.204,VALID,0.0,VALID,99.094,VALID,-0.025,VALID,21.383,VALID,16.0,VALID,0.0,
2019-09-28, 00:30:06,VALID,919.176,VALID,0.0,VALID,99.178,VALID,-0.053,VALID,21.451,VALID,16.0,VALID,0.0,
2019-09-28, 00:31:06,VALID,919.153,VALID,0.0,VALID,99.26,VALID,-0.048,VALID,21.527,VALID,16.0,VALID,0.0,
2019-09-28, 00:32:06,VALID,919.155,VALID,0.0,VALID,99.242,VALID,-0.025,VALID,21.511,VALID,16.0,VALID,0.0,
2019-09-28, 00:33:06,VALID,919.129,VALID,0.0,VALID,99.157,VALID,-0.037,VALID,21.452,VALID,16.0,VALID,0.0,
2019-09-28, 00:34:06,VALID,919.121,VALID,0.0,VALID,99.102,VALID,-0.022,VALID,21.414,VALID,16.0,VALID,0.0,
2019-09-28, 00:35:06,VALID,919.129,VALID,0.0,VALID,99.135,VALID,0.0,VALID,21.434,VALID,16.0,VALID,0.0,
2019-09-28, 00:36:06,VALID,919.153,VALID,0.0,VALID,99.135,VALID,0.062,VALID,21.483,VALID,15.0,VALID,0.0,
2019-09-28, 00:37:06,VALID,919.174,VALID,0.0,VALID,99.14,VALID,0.065,VALID,21.51,VALID,14.0,VALID,0.0,
2019-09-28, 00:38:06,VALID,919.158,VALID,0.0,VALID,99.119,VALID,0.042,VALID,21.498,VALID,13.0,VALID,0.0,
2019-09-28, 00:39:06,VALID,919.139,VALID,0.0,VALID,98.999,VALID,0.052,VALID,21.427,VALID,354.0,VALID,0.0,
2019-09-28, 00:40:06,VALID,919.102,VALID,0.0,VALID,98.938,VALID,0.036,VALID,21.393,VALID,324.0,VALID,0.0,
2019-09-28, 00:41:06,VALID,919.11,VALID,0.0,VALID,98.954,VALID,0.057,VALID,21.392,VALID,261.0,VALID,0.0,
2019-09-28, 00:42:06,VALID,919.08,VALID,0.0,VALID,98.89,VALID,0.045,VALID,21.315,VALID,239.0,VALID,0.0,
2019-09-28, 00:43:06,VALID,919.06,VALID,0.0,VALID,98.911,VALID,0.05,VALID,21.291,VALID,238.0,VALID,0.0,
2019-09-28, 00:44:06,VALID,919.081,VALID,0.0,VALID,99.122,VALID,0.054,VALID,21.376,VALID,238.0,VALID,0.0,
2019-09-28, 00:45:06,VALID,919.061,VALID,0.0,VALID,99.215,VALID,0.057,VALID,21.437,VALID,238.0,VALID,0.0,
2019-09-28, 00:46:06,VALID,919.047,VALID,0.0,VALID,99.242,VALID,0.062,VALID,21.453,VALID,238.0,VALID,0.0,
2019-09-28, 00:47:06,VALID,919.042,VALID,0.0,VALID,99.221,VALID,0.057,VALID,21.445,VALID,238.0,VALID,0.0,
2019-09-28, 00:48:06,VALID,919.019,VALID,0.0,VALID,99.232,VALID,0.045,VALID,21.449,VALID,238.0,VALID,0.0,
2019-09-28, 00:49:06,VALID,919.01,VALID,0.0,VALID,99.212,VALID,0.029,VALID,21.454,VALID,238.0,VALID,0.0,
2019-09-28, 00:50:06,VALID,918.979,VALID,0.0,VALID,99.232,VALID,0.018,VALID,21.443,VALID,238.0,VALID,0.0,
2019-09-28, 00:51:06,VALID,918.977,VALID,0.0,VALID,99.171,VALID,-0.055,VALID,21.409,VALID,238.0,VALID,0.0,
2019-09-28, 00:52:06,VALID,918.953,VALID,0.0,VALID,99.157,VALID,-0.048,VALID,21.386,VALID,234.0,VALID,0.0,
2019-09-28, 00:53:06,VALID,918.946,VALID,0.0,VALID,99.203,VALID,-0.058,VALID,21.408,VALID,230.0,VALID,0.0,
2019-09-28, 00:54:06,VALID,918.936,VALID,0.0,VALID,99.134,VALID,-0.06,VALID,21.337,VALID,230.0,VALID,0.0,
2019-09-28, 00:55:06,VALID,918.927,VALID,0.0,VALID,99.085,VALID,-0.052,VALID,21.277,VALID,230.0,VALID,0.0,
2019-09-28, 00:56:06,VALID,918.904,VALID,0.0,VALID,99.08,VALID,-0.043,VALID,21.272,VALID,230.0,VALID,0.0,
2019-09-28, 00:57:06,VALID,918.914,VALID,0.0,VALID,99.168,VALID,-0.049,VALID,21.35,VALID,230.0,VALID,0.0,
2019-09-28, 00:58:06,VALID,918.905,VALID,0.0,VALID,99.214,VALID,-0.05,VALID,21.354,VALID,230.0,VALID,0.0,
2019-09-28, 00:59:06,VALID,918.884,VALID,0.0,VALID,99.177,VALID,-0.049,VALID,21.307,VALID,230.0,VALID,0.0,
2019-09-28, 01:00:06,VALID,918.892,VALID,0.0,VALID,99.226,VALID,-0.056,VALID,21.336,VALID,230.0,VALID,0.0,
2019-09-28, 01:01:06,VALID,918.912,VALID,0.0,VALID,99.251,VALID,-0.06,VALID,21.367,VALID,229.0,VALID,0.0,
2019-09-28, 01:02:06,VALID,918.914,VALID,0.0,VALID,99.302,VALID,-0.039,VALID,21.398,VALID,228.0,VALID,0.0,
2019-09-28, 01:03:06,VALID,918.918,VALID,0.0,VALID,99.378,VALID,-0.047,VALID,21.449,VALID,228.0,VALID,0.0,
2019-09-28, 01:04:06,VALID,918.931,VALID,0.0,VALID,99.307,VALID,-0.041,VALID,21.399,VALID,215.0,VALID,0.0,
2019-09-28, 01:05:06,VALID,918.913,VALID,0.0,VALID,99.281,VALID,-0.037,VALID,21.347,VALID,214.0,VALID,0.0,
2019-09-28, 01:06:06,VALID,918.896,VALID,0.0,VALID,99.316,VALID,-0.008,VALID,21.353,VALID,210.0,VALID,0.0,
2019-09-28, 01:07:06,VALID,918.872,VALID,0.0,VALID,99.378,VALID,-0.012,VALID,21.41,VALID,210.0,VALID,0.0,
2019-09-28, 01:08:06,VALID,918.839,VALID,0.0,VALID,99.452,VALID,-0.001,VALID,21.493,VALID,210.0,VALID,0.0,
2019-09-28, 01:09:06,VALID,918.812,VALID,0.0,VALID,99.45,VALID,0.001,VALID,21.519,VALID,210.0,VALID,0.0,
2019-09-28, 01:10:06,VALID,918.766,VALID,0.0,VALID,99.419,VALID,-0.009,VALID,21.489,VALID,210.0,VALID,0.0,
2019-09-28, 01:11:06,VALID,918.77,VALID,0.0,VALID,99.405,VALID,-0.009,VALID,21.476,VALID,210.0,VALID,0.0,
2019-09-28, 01:12:06,VALID,918.732,VALID,0.0,VALID,99.447,VALID,-0.001,VALID,21.515,VALID,210.0,VALID,0.0,
2019-09-28, 01:13:06,VALID,918.713,VALID,0.0,VALID,99.44,VALID,-0.009,VALID,21.511,VALID,210.0,VALID,0.0,
2019-09-28, 01:14:06,VALID,918.699,VALID,0.0,VALID,99.405,VALID,0.011,VALID,21.49,VALID,210.0,VALID,0.0,
2019-09-28, 01:15:06,VALID,918.7,VALID,0.0,VALID,99.388,VALID,0.002,VALID,21.47,VALID,210.0,VALID,0.0,
2019-09-28, 01:16:06,VALID,918.687,VALID,0.0,VALID,99.347,VALID,-0.009,VALID,21.432,VALID,210.0,VALID,0.0,
2019-09-28, 01:17:06,VALID,918.673,VALID,0.0,VALID,99.334,VALID,-0.008,VALID,21.412,VALID,210.0,VALID,0.0,
2019-09-28, 01:18:06,VALID,918.674,VALID,0.0,VALID,99.254,VALID,0.001,VALID,21.344,VALID,210.0,VALID,0.0,
2019-09-28, 01:19:06,VALID,918.69,VALID,0.0,VALID,99.229,VALID,-0.008,VALID,21.309,VALID,210.0,VALID,0.0,
2019-09-28, 01:20:06,VALID,918.705,VALID,0.0,VALID,99.288,VALID,-0.005,VALID,21.364,VALID,210.0,VALID,0.0,
2019-09-28, 01:21:06,VALID,918.725,VALID,0.0,VALID,99.236,VALID,0.022,VALID,21.338,VALID,210.0,VALID,0.0,
2019-09-28, 01:22:06,VALID,918.725,VALID,0.0,VALID,99.255,VALID,0.017,VALID,21.375,VALID,210.0,VALID,0.0,
2019-09-28, 01:23:06,VALID,918.712,VALID,0.0,VALID,99.299,VALID,0.034,VALID,21.424,VALID,210.0,VALID,0.0,
2019-09-28, 01:24:06,VALID,918.718,VALID,0.0,VALID,99.248,VALID,0.03,VALID,21.407,VALID,210.0,VALID,0.0,
2019-09-28, 01:25:06,VALID,918.71,VALID,0.0,VALID,99.204,VALID,0.021,VALID,21.382,VALID,210.0,VALID,0.0,
2019-09-28, 01:26:06,VALID,918.674,VALID,0.0,VALID,99.226,VALID,0.039,VALID,21.408,VALID,210.0,VALID,0.0,
2019-09-28, 01:27:06,VALID,918.655,VALID,0.0,VALID,99.14,VALID,0.032,VALID,21.367,VALID,217.0,VALID,0.0,
2019-09-28, 01:28:06,VALID,918.625,VALID,0.0,VALID,99.075,VALID,0.024,VALID,21.325,VALID,219.0,VALID,0.0,
2019-09-28, 01:29:06,VALID,918.605,VALID,0.0,VALID,98.96,VALID,0.029,VALID,21.249,VALID,219.0,VALID,0.0,
2019-09-28, 01:30:06,VALID,918.586,VALID,0.0,VALID,98.983,VALID,0.031,VALID,21.242,VALID,218.0,VALID,0.0,
2019-09-28, 01:31:06,VALID,918.579,VALID,0.0,VALID,99.017,VALID,0.025,VALID,21.263,VALID,214.0,VALID,0.0,
2019-09-28, 01:32:06,VALID,918.565,VALID,0.0,VALID,99.0,VALID,0.026,VALID,21.257,VALID,214.0,VALID,0.0,
2019-09-28, 01:33:06,VALID,918.556,VALID,0.0,VALID,99.03,VALID,0.015,VALID,21.279,VALID,214.0,VALID,0.0,
2019-09-28, 01:34:06,VALID,918.562,VALID,0.0,VALID,99.079,VALID,0.022,VALID,21.322,VALID,214.0,VALID,0.0,
2019-09-28, 01:35:06,VALID,918.561,VALID,0.0,VALID,99.104,VALID,0.024,VALID,21.339,VALID,214.0,VALID,0.0,
2019-09-28, 01:36:06,VALID,918.56,VALID,0.0,VALID,99.031,VALID,-0.016,VALID,21.311,VALID,214.0,VALID,0.0,
2019-09-28, 01:37:06,VALID,918.52,VALID,0.0,VALID,98.982,VALID,-0.006,VALID,21.298,VALID,214.0,VALID,0.0,
2019-09-28, 01:38:06,VALID,918.473,VALID,0.0,VALID,98.919,VALID,-0.014,VALID,21.265,VALID,214.0,VALID,0.0,
2019-09-28, 01:39:06,VALID,918.464,VALID,0.0,VALID,98.853,VALID,-0.013,VALID,21.225,VALID,214.0,VALID,0.0,
2019-09-28, 01:40:06,VALID,918.442,VALID,0.0,VALID,98.967,VALID,-0.011,VALID,21.249,VALID,192.0,VALID,0.0,
2019-09-28, 01:41:06,VALID,918.453,VALID,0.0,VALID,99.009,VALID,-0.009,VALID,21.277,VALID,172.0,VALID,0.0,
2019-09-28, 01:42:06,VALID,918.434,VALID,0.0,VALID,99.001,VALID,-0.007,VALID,21.253,VALID,167.0,VALID,0.0,
2019-09-28, 01:43:06,VALID,918.42,VALID,0.0,VALID,99.008,VALID,-0.004,VALID,21.222,VALID,173.0,VALID,0.0,
2019-09-28, 01:44:07,VALID,918.419,VALID,0.0,VALID,99.077,VALID,-0.001,VALID,21.233,VALID,219.0,VALID,0.0,
2019-09-28, 01:45:07,VALID,918.412,VALID,0.0,VALID,99.142,VALID,-0.009,VALID,21.264,VALID,215.0,VALID,0.0,
2019-09-28, 01:46:07,VALID,918.424,VALID,0.0,VALID,99.198,VALID,-0.003,VALID,21.297,VALID,281.0,VALID,0.0,
2019-09-28, 01:47:07,VALID,918.423,VALID,0.0,VALID,99.173,VALID,-0.011,VALID,21.285,VALID,20.0,VALID,0.0,
2019-09-28, 01:48:07,VALID,918.431,VALID,0.0,VALID,99.167,VALID,-0.007,VALID,21.272,VALID,15.0,VALID,0.0,
2019-09-28, 01:49:07,VALID,918.425,VALID,0.0,VALID,99.145,VALID,-0.006,VALID,21.236,VALID,7.0,VALID,0.0,
2019-09-28, 01:50:07,VALID,918.425,VALID,0.0,VALID,99.139,VALID,-0.003,VALID,21.216,VALID,14.0,VALID,0.0,
2019-09-28, 01:51:07,VALID,918.414,VALID,0.0,VALID,99.203,VALID,-0.033,VALID,21.232,VALID,4.0,VALID,0.0,
2019-09-28, 01:52:07,VALID,918.397,VALID,0.0,VALID,99.246,VALID,-0.029,VALID,21.242,VALID,6.0,VALID,0.0,
2019-09-28, 01:53:07,VALID,918.385,VALID,0.0,VALID,99.253,VALID,-0.041,VALID,21.238,VALID,28.0,VALID,0.0,
2019-09-28, 01:54:07,VALID,918.395,VALID,0.0,VALID,99.263,VALID,-0.031,VALID,21.221,VALID,5.0,VALID,0.0,
2019-09-28, 01:55:07,VALID,918.39,VALID,0.0,VALID,99.29,VALID,-0.041,VALID,21.234,VALID,18.0,VALID,0.0,
2019-09-28, 01:56:07,VALID,918.35,VALID,0.0,VALID,99.319,VALID,-0.038,VALID,21.249,VALID,262.0,VALID,0.0,
2019-09-28, 01:57:07,VALID,918.32,VALID,0.0,VALID,99.323,VALID,-0.024,VALID,21.239,VALID,228.0,VALID,0.0,
2019-09-28, 01:58:07,VALID,918.3,VALID,0.0,VALID,99.334,VALID,-0.05,VALID,21.231,VALID,188.0,VALID,0.0,
2019-09-28, 01:59:07,VALID,918.283,VALID,0.0,VALID,99.327,VALID,-0.03,VALID,21.217,VALID,162.0,VALID,0.0,
2019-09-28, 02:00:07,VALID,918.279,VALID,0.0,VALID,99.321,VALID,-0.029,VALID,21.218,VALID,173.0,VALID,0.0,
2019-09-28, 02:01:07,VALID,918.274,VALID,0.0,VALID,99.307,VALID,-0.044,VALID,21.196,VALID,180.0,VALID,0.0,
2019-09-28, 02:02:07,VALID,918.266,VALID,0.0,VALID,99.299,VALID,-0.043,VALID,21.168,VALID,173.0,VALID,0.0,
2019-09-28, 02:03:07,VALID,918.246,VALID,0.0,VALID,99.363,VALID,-0.044,VALID,21.18,VALID,180.0,VALID,0.0,
2019-09-28, 02:04:07,VALID,918.249,VALID,0.0,VALID,99.375,VALID,-0.037,VALID,21.206,VALID,222.0,VALID,0.0,
2019-09-28, 02:05:07,VALID,918.228,VALID,0.0,VALID,99.394,VALID,-0.016,VALID,21.198,VALID,200.0,VALID,0.0,
2019-09-28, 02:06:07,VALID,918.216,VALID,0.0,VALID,99.339,VALID,0.021,VALID,21.165,VALID,212.0,VALID,0.0,
2019-09-28, 02:07:07,VALID,918.208,VALID,0.0,VALID,99.341,VALID,0.015,VALID,21.146,VALID,216.0,VALID,0.0,
2019-09-28, 02:08:07,VALID,918.216,VALID,0.0,VALID,99.307,VALID,0.025,VALID,21.11,VALID,204.0,VALID,0.0,
2019-09-28, 02:09:07,VALID,918.206,VALID,0.0,VALID,99.291,VALID,0.039,VALID,21.102,VALID,229.0,VALID,0.0,
2019-09-28, 02:10:07,VALID,918.201,VALID,0.0,VALID,99.322,VALID,0.029,VALID,21.123,VALID,224.0,VALID,0.0,
2019-09-28, 02:11:07,VALID,918.204,VALID,0.0,VALID,99.319,VALID,0.036,VALID,21.143,VALID,230.0,VALID,0.0,
2019-09-28, 02:12:07,VALID,918.207,VALID,0.0,VALID,99.259,VALID,0.019,VALID,21.108,VALID,230.0,VALID,0.0,
2019-09-28, 02:13:07,VALID,918.191,VALID,0.0,VALID,99.203,VALID,0.017,VALID,21.069,VALID,229.0,VALID,0.0,
2019-09-28, 02:14:07,VALID,918.16,VALID,0.0,VALID,99.216,VALID,0.009,VALID,21.071,VALID,229.0,VALID,0.0,
2019-09-28, 02:15:07,VALID,918.147,VALID,0.0,VALID,99.224,VALID,0.024,VALID,21.085,VALID,192.0,VALID,0.0,
2019-09-28, 02:16:07,VALID,918.142,VALID,0.0,VALID,99.241,VALID,0.031,VALID,21.106,VALID,184.0,VALID,0.0,
2019-09-28, 02:17:07,VALID,918.137,VALID,0.0,VALID,99.171,VALID,0.017,VALID,21.089,VALID,180.0,VALID,0.0,
2019-09-28, 02:18:07,VALID,918.117,VALID,0.0,VALID,99.171,VALID,0.015,VALID,21.084,VALID,175.0,VALID,0.0,
2019-09-28, 02:19:07,VALID,918.106,VALID,0.0,VALID,99.197,VALID,0.022,VALID,21.092,VALID,175.0,VALID,0.0,
2019-09-28, 02:20:07,VALID,918.1,VALID,0.0,VALID,99.198,VALID,0.016,VALID,21.119,VALID,175.0,VALID,0.0,
2019-09-28, 02:21:07,VALID,918.091,VALID,0.0,VALID,99.204,VALID,0.022,VALID,21.123,VALID,175.0,VALID,0.0,
2019-09-28, 02:22:07,VALID,918.073,VALID,0.0,VALID,99.172,VALID,0.016,VALID,21.117,VALID,175.0,VALID,0.0,
2019-09-28, 02:23:07,VALID,918.057,VALID,0.0,VALID,99.138,VALID,0.019,VALID,21.089,VALID,175.0,VALID,0.0,
2019-09-28, 02:24:07,VALID,918.04,VALID,0.0,VALID,99.134,VALID,0.013,VALID,21.08,VALID,177.0,VALID,0.0,
2019-09-28, 02:25:07,VALID,918.05,VALID,0.0,VALID,99.145,VALID,0.013,VALID,21.11,VALID,178.0,VALID,0.0,
2019-09-28, 02:26:07,VALID,918.045,VALID,0.0,VALID,99.144,VALID,0.018,VALID,21.143,VALID,137.0,VALID,0.0,
2019-09-28, 02:27:07,VALID,918.048,VALID,0.0,VALID,99.154,VALID,0.02,VALID,21.167,VALID,87.0,VALID,0.0,
2019-09-28, 02:28:07,VALID,918.047,VALID,0.0,VALID,99.114,VALID,0.025,VALID,21.161,VALID,87.0,VALID,0.0,
2019-09-28, 02:29:07,VALID,918.045,VALID,0.0,VALID,99.09,VALID,0.019,VALID,21.169,VALID,87.0,VALID,0.0,
2019-09-28, 02:30:07,VALID,918.056,VALID,0.0,VALID,99.108,VALID,0.011,VALID,21.195,VALID,87.0,VALID,0.0,
2019-09-28, 02:31:07,VALID,918.057,VALID,0.0,VALID,99.063,VALID,0.01,VALID,21.194,VALID,87.0,VALID,0.0,
2019-09-28, 02:32:07,VALID,918.074,VALID,0.0,VALID,98.901,VALID,0.009,VALID,21.135,VALID,87.0,VALID,0.0,
2019-09-28, 02:33:07,VALID,918.067,VALID,0.0,VALID,98.865,VALID,0.022,VALID,21.139,VALID,86.0,VALID,0.0,
2019-09-28, 02:34:07,VALID,918.077,VALID,0.0,VALID,98.877,VALID,0.02,VALID,21.16,VALID,68.0,VALID,0.0,
2019-09-28, 02:35:07,VALID,918.1,VALID,0.0,VALID,98.918,VALID,0.006,VALID,21.188,VALID,15.0,VALID,0.0,
2019-09-28, 02:36:07,VALID,918.105,VALID,0.0,VALID,98.944,VALID,-0.014,VALID,21.219,VALID,8.0,VALID,0.0,
2019-09-28, 02:37:07,VALID,918.116,VALID,0.0,VALID,98.878,VALID,-0.018,VALID,21.214,VALID,360.0,VALID,0.0,
2019-09-28, 02:38:07,VALID,918.098,VALID,0.0,VALID,98.734,VALID,-0.007,VALID,21.167,VALID,345.0,VALID,0.0,
2019-09-28, 02:39:07,VALID,918.085,VALID,0.0,VALID,98.596,VALID,-0.013,VALID,21.112,VALID,344.0,VALID,0.0,
2019-09-28, 02:40:07,VALID,918.07,VALID,0.0,VALID,98.651,VALID,-0.012,VALID,21.103,VALID,296.0,VALID,0.0,
2019-09-28, 02:41:07,VALID,918.088,VALID,0.0,VALID,98.77,VALID,-0.011,VALID,21.129,VALID,249.0,VALID,0.0,
2019-09-28, 02:42:07,VALID,918.108,VALID,0.0,VALID,98.804,VALID,-0.014,VALID,21.141,VALID,249.0,VALID,0.0,
2019-09-28, 02:43:07,VALID,918.14,VALID,0.0,VALID,98.842,VALID,-0.011,VALID,21.139,VALID,199.0,VALID,0.0,
2019-09-28, 02:44:07,VALID,918.131,VALID,0.0,VALID,98.814,VALID,-0.022,VALID,21.114,VALID,196.0,VALID,0.0,
2019-09-28, 02:45:07,VALID,918.122,VALID,0.0,VALID,98.89,VALID,-0.007,VALID,21.123,VALID,196.0,VALID,0.0,
2019-09-28, 02:46:07,VALID,918.091,VALID,0.0,VALID,98.894,VALID,-0.01,VALID,21.118,VALID,198.0,VALID,0.0,
2019-09-28, 02:47:07,VALID,918.104,VALID,0.0,VALID,98.84,VALID,-0.019,VALID,21.081,VALID,199.0,VALID,0.0,
2019-09-28, 02:48:07,VALID,918.075,VALID,0.0,VALID,98.902,VALID,-0.017,VALID,21.089,VALID,199.0,VALID,0.0,
2019-09-28, 02:49:07,VALID,918.097,VALID,0.0,VALID,98.942,VALID,-0.021,VALID,21.101,VALID,199.0,VALID,0.0,
2019-09-28, 02:50:07,VALID,918.096,VALID,0.0,VALID,98.912,VALID,-0.006,VALID,21.075,VALID,199.0,VALID,0.0,
2019-09-28, 02:51:07,VALID,918.121,VALID,0.0,VALID,98.91,VALID,-0.006,VALID,21.052,VALID,199.0,VALID,0.0,
2019-09-28, 02:52:07,VALID,918.116,VALID,0.0,VALID,98.94,VALID,-0.014,VALID,21.051,VALID,199.0,VALID,0.0,
2019-09-28, 02:53:07,VALID,918.102,VALID,0.0,VALID,98.976,VALID,-0.003,VALID,21.062,VALID,202.0,VALID,0.0,
2019-09-28, 02:54:07,VALID,918.089,VALID,0.0,VALID,98.999,VALID,0.003,VALID,21.056,VALID,203.0,VALID,0.0,
2019-09-28, 02:55:07,VALID,918.078,VALID,0.0,VALID,98.986,VALID,-0.002,VALID,21.041,VALID,204.0,VALID,0.0,
2019-09-28, 02:56:07,VALID,918.066,VALID,0.0,VALID,99.02,VALID,0.0,VALID,21.04,VALID,226.0,VALID,0.0,
2019-09-28, 02:57:07,VALID,918.049,VALID,0.0,VALID,99.041,VALID,0.003,VALID,21.046,VALID,231.0,VALID,0.0,
2019-09-28, 02:58:07,VALID,918.07,VALID,0.0,VALID,99.053,VALID,-0.015,VALID,21.033,VALID,263.0,VALID,0.0,
2019-09-28, 02:59:07,VALID,918.087,VALID,0.0,VALID,99.127,VALID,0.008,VALID,21.07,VALID,285.0,VALID,0.0,
2019-09-28, 03:00:07,VALID,918.092,VALID,0.0,VALID,99.122,VALID,-0.005,VALID,21.082,VALID,287.0,VALID,0.0,
2019-09-28, 03:01:07,VALID,918.091,VALID,0.0,VALID,99.152,VALID,0.01,VALID,21.089,VALID,287.0,VALID,0.0,
2019-09-28, 03:02:07,VALID,918.085,VALID,0.0,VALID,99.074,VALID,0.004,VALID,21.048,VALID,287.0,VALID,0.0,
2019-09-28, 03:03:07,VALID,918.061,VALID,0.0,VALID,99.038,VALID,-0.012,VALID,21.025,VALID,287.0,VALID,0.0,
2019-09-28, 03:04:07,VALID,918.069,VALID,0.0,VALID,99.048,VALID,-0.002,VALID,21.032,VALID,287.0,VALID,0.0,
2019-09-28, 03:05:07,VALID,918.067,VALID,0.0,VALID,99.024,VALID,-0.029,VALID,21.021,VALID,287.0,VALID,0.0,
2019-09-28, 03:06:07,VALID,918.081,VALID,0.0,VALID,98.981,VALID,-0.036,VALID,20.983,VALID,287.0,VALID,0.0,
2019-09-28, 03:07:07,VALID,918.091,VALID,0.0,VALID,99.004,VALID,-0.045,VALID,20.981,VALID,287.0,VALID,0.0,
2019-09-28, 03:08:07,VALID,918.112,VALID,0.0,VALID,99.003,VALID,-0.036,VALID,20.981,VALID,1.0,VALID,0.0,
2019-09-28, 03:09:07,VALID,918.068,VALID,0.0,VALID,98.981,VALID,-0.03,VALID,20.968,VALID,40.0,VALID,0.0,
2019-09-28, 03:10:07,VALID,918.074,VALID,0.0,VALID,98.972,VALID,-0.036,VALID,20.954,VALID,42.0,VALID,0.0,
2019-09-28, 03:11:07,VALID,918.068,VALID,0.0,VALID,98.944,VALID,-0.035,VALID,20.935,VALID,43.0,VALID,0.0,
2019-09-28, 03:12:07,VALID,918.067,VALID,0.0,VALID,98.932,VALID,-0.022,VALID,20.931,VALID,43.0,VALID,0.0,
2019-09-28, 03:13:07,VALID,918.085,VALID,0.0,VALID,98.995,VALID,-0.035,VALID,20.953,VALID,43.0,VALID,0.0,
2019-09-28, 03:14:07,VALID,918.074,VALID,0.0,VALID,99.016,VALID,-0.027,VALID,20.955,VALID,43.0,VALID,0.0,
2019-09-28, 03:15:07,VALID,918.075,VALID,0.0,VALID,98.999,VALID,-0.04,VALID,20.935,VALID,43.0,VALID,0.0,
2019-09-28, 03:16:07,VALID,918.067,VALID,0.0,VALID,98.933,VALID,-0.04,VALID,20.884,VALID,43.0,VALID,0.0,
2019-09-28, 03:17:07,VALID,918.041,VALID,0.0,VALID,98.922,VALID,-0.043,VALID,20.872,VALID,55.0,VALID,0.0,
2019-09-28, 03:18:07,VALID,918.053,VALID,0.0,VALID,98.919,VALID,-0.033,VALID,20.865,VALID,66.0,VALID,0.0,
2019-09-28, 03:19:07,VALID,918.066,VALID,0.0,VALID,98.924,VALID,-0.041,VALID,20.862,VALID,66.0,VALID,0.0,
2019-09-28, 03:20:07,VALID,918.079,VALID,0.0,VALID,98.878,VALID,-0.039,VALID,20.851,VALID,66.0,VALID,0.0,
2019-09-28, 03:21:07,VALID,918.069,VALID,0.0,VALID,98.891,VALID,-0.012,VALID,20.846,VALID,84.0,VALID,0.0,
2019-09-28, 03:22:07,VALID,918.06,VALID,0.0,VALID,98.908,VALID,0.008,VALID,20.856,VALID,127.0,VALID,0.0,
2019-09-28, 03:23:07,VALID,918.082,VALID,0.0,VALID,98.928,VALID,0.011,VALID,20.872,VALID,125.0,VALID,0.0,
2019-09-28, 03:24:07,VALID,918.075,VALID,0.0,VALID,98.975,VALID,0.0,VALID,20.902,VALID,119.0,VALID,0.0,
2019-09-28, 03:25:07,VALID,918.091,VALID,0.0,VALID,98.952,VALID,0.005,VALID,20.907,VALID,126.0,VALID,0.0,
2019-09-28, 03:26:07,VALID,918.12,VALID,0.0,VALID,98.888,VALID,-0.005,VALID,20.877,VALID,111.0,VALID,0.0,
2019-09-28, 03:27:07,VALID,918.141,VALID,0.0,VALID,98.872,VALID,0.004,VALID,20.851,VALID,101.0,VALID,0.0,
2019-09-28, 03:28:07,VALID,918.146,VALID,0.0,VALID,98.901,VALID,0.005,VALID,20.844,VALID,104.0,VALID,0.0,
2019-09-28, 03:29:07,VALID,918.139,VALID,0.0,VALID,98.906,VALID,0.007,VALID,20.839,VALID,111.0,VALID,0.0,
2019-09-28, 03:30:07,VALID,918.129,VALID,0.0,VALID,98.958,VALID,0.008,VALID,20.833,VALID,107.0,VALID,0.0,
2019-09-28, 03:31:07,VALID,918.108,VALID,0.0,VALID,98.992,VALID,0.006,VALID,20.825,VALID,107.0,VALID,0.0,
2019-09-28, 03:32:07,VALID,918.111,VALID,0.0,VALID,99.017,VALID,-0.009,VALID,20.814,VALID,107.0,VALID,0.0,
2019-09-28, 03:33:07,VALID,918.115,VALID,0.0,VALID,99.03,VALID,-0.002,VALID,20.806,VALID,107.0,VALID,0.0,
2019-09-28, 03:34:07,VALID,918.138,VALID,0.0,VALID,99.093,VALID,-0.003,VALID,20.828,VALID,111.0,VALID,0.0,
2019-09-28, 03:35:07,VALID,918.153,VALID,0.0,VALID,99.131,VALID,0.026,VALID,20.86,VALID,113.0,VALID,0.0,
2019-09-28, 03:36:07,VALID,918.162,VALID,0.0,VALID,99.138,VALID,0.053,VALID,20.866,VALID,113.0,VALID,0.0,
2019-09-28, 03:37:07,VALID,918.169,VALID,0.0,VALID,99.153,VALID,0.03,VALID,20.883,VALID,113.0,VALID,0.0,
2019-09-28, 03:38:07,VALID,918.166,VALID,0.0,VALID,99.161,VALID,0.038,VALID,20.888,VALID,113.0,VALID,0.0,
2019-09-28, 03:39:07,VALID,918.143,VALID,0.0,VALID,99.148,VALID,0.03,VALID,20.869,VALID,113.0,VALID,0.0,
2019-09-28, 03:40:07,VALID,918.12,VALID,0.0,VALID,99.149,VALID,0.017,VALID,20.858,VALID,113.0,VALID,0.0,
2019-09-28, 03:41:07,VALID,918.112,VALID,0.0,VALID,99.187,VALID,0.023,VALID,20.87,VALID,113.0,VALID,0.0,
2019-09-28, 03:42:07,VALID,918.12,VALID,0.0,VALID,99.191,VALID,0.038,VALID,20.861,VALID,116.0,VALID,0.0,